Regional Weather Roundup
Issued by NWS Kansas City/Pleasant Hill, MO

Home | Current Version | Previous Version | Text Only | Print | Product List | Glossary On
Versions: 1 2 3 4 5 6 7 8 9 10 11 12 13 14 15 16 17 18 19 20 21 22 23 24 25 26 27 28 29 30 31 32 33 34 35 36 37 38 39 40 41 42 43 44 45 46 47 48 49 50
000
ASUS43 KEAX 290104
RWREAX

WEATHER ROUNDUP FOR EASTERN KANSAS AND NORTHWEST MISSOURI
NATIONAL WEATHER SERVICE KANSAS CITY/PLEASANT HILL MO
700 PM CST WED JAN 28 2015

KSZ040-057-103>105-MOZ028-029-037-043-290200-
...KANSAS CITY METROPOLITAN AREA...

CITY           SKY/WX    TMP DP  RH WIND       PRES   REMARKS
K.C. INTL      PTCLDY    63  40  42 SW13      29.72R
K.C. DOWNTOWN  PTCLDY    68  39  34 SW13      29.72R
LEES SUMMIT    CLOUDY    65  38  36 SW14G22   29.73R
OLATHE - IXD   PTCLDY    62  40  44 SW13      29.76R
OLATHE - OJC   MOCLDY    64  40  41 SW12      29.74R
LAWRENCE       CLEAR     62  38  40 W10       29.75R

$$

MOZ001>008-011>017-020>025-030>033-038>040-044>046-053-054-290200-
...NORTHERN AND CENTRAL MISSOURI...

CITY           SKY/WX    TMP DP  RH WIND       PRES   REMARKS
ST. JOSEPH     CLEAR     61  39  44 W10       29.72R
MOSBY          MOCLDY    68  36  30 SW10      29.70R
WARRENSBURG    CLOUDY    59  39  47 S9        29.74R
WHITEMAN AFB   NOT AVBL
CLINTON        CLOUDY    61  41  48 S10       29.78S
SEDALIA        MOCLDY    60  38  43 S20       29.77S
WARSAW         NOT AVBL
MARSHALL       MOCLDY    61  43  51 S16       29.75F
CHILLICOTHE      N/A     61  41  47 S9G18     29.70R
MOBERLY        CLOUDY    55  36  47 S16       29.75F
KIRKSVILLE     MOCLDY    45  37  73 S10       29.71F

$$

MOZ041-047>049-056>058-063>065-088>090-097-290200-
...EASTERN AND SOUTHERN MISSOURI...

CITY           SKY/WX    TMP DP  RH WIND       PRES   REMARKS
ST. LOUIS INTL MOCLDY    46  32  58 SE15      29.91F
SPIRIT OF STL  MOCLDY    48  31  51 S12G22    29.89F
COLUMBIA       CLOUDY    54  36  50 S18       29.80F
JEFFERSON CITY MOCLDY    55  34  45 SE14G24   29.82F
MEXICO         MOCLDY    52  41  66 S16G24    29.78F
HANNIBAL       CLOUDY    50  30  46 SE14G20   29.78F
ROLLA          MOCLDY    48  33  56 S20       29.86F
LEBANON        PTCLDY    55  36  47 S17G25    29.87F
OSAGE BEACH    MOCLDY    55  34  44 S14G20    29.84F
SPRINGFIELD    MOCLDY    61  38  42 S17       29.85F
BRANSON        MOCLDY    57  39  51 S15       29.94R
NEVADA         CLOUDY    63  41  45 S18G24    29.81R
JOPLIN         CLOUDY    65  40  39 S20       29.85R
WEST PLAINS    MOCLDY    48  33  56 S12       29.99F

$$

IAZ060-094-KSZ022-034>040-054-083-096-NEZ052-066-093-290200-
...KANSAS...SOUTHEAST NEBRASKA AND IOWA...

CITY           SKY/WX    TMP DP  RH WIND       PRES   REMARKS
TOPEKA         CLEAR     60  36  40 W7        29.75R
MANHATTAN      CLOUDY    56  34  43 SW6       29.76R
EMPORIA        MOCLDY    55  34  45 SW10      29.79R
CHANUTE        CLEAR     63  41  44 SW8       29.83R
WICHITA        MOCLDY    56  35  45 SW8       29.85R
OMAHA          CLEAR     42  34  73 NW7       29.71R
LINCOLN        CLEAR     58  35  42 NW15      29.76R
FALLS CITY     CLEAR     54  34  46 W10       29.70R
LAMONI         CLOUDY    52  39  61 S7        29.66F
DES MOINES     CLOUDY    47  35  63 E9        29.69F

$$




USA.gov is the U.S. government's official web portal to all federal, state and local government web resources and services.